Location: Alafon
(8.4500°N, 4.2333°E)
Time: 11:33:08
(UTC+00:00)

A-11 Canister half - Visible Passes

Search period start: 04 August 2021 00:00
Search period end: 14 August 2021 00:00
Orbit: 1513 x 1687 km, 47.2° (Epoch: 04 August)

Date Brightness Start Highest point End Pass type
(mag) Time Alt. Az. Time Alt. Az. Time Alt. Az.
04 Aug 10.9 22:07:01 10° N 22:10:18 18° N 22:10:18 18° N visible
05 Aug 10.8 21:44:19 10° N 21:48:13 19° NNE 21:48:13 19° NNE visible
06 Aug 10.7 21:21:40 10° N 21:26:11 19° NNE 21:26:11 19° NNE visible
06 Aug 11.3 23:24:08 10° NW 23:24:21 11° NW 23:24:21 11° NW visible
07 Aug 10.7 20:59:02 10° N 21:04:12 18° NNE 21:04:12 18° NNE visible
07 Aug 11.1 23:01:11 10° NW 23:02:22 14° NW 23:02:22 14° NW visible
08 Aug 10.7 20:36:27 10° N 20:42:16 17° NE 20:42:16 17° NE visible
08 Aug 10.9 22:38:15 10° NW 22:40:26 19° NW 22:40:26 19° NW visible
09 Aug 10.7 20:13:55 10° N 20:19:28 16° NE 20:20:23 16° NE visible
09 Aug 10.7 22:15:21 10° NW 22:18:34 24° NNW 22:18:34 24° NNW visible
10 Aug 10.7 19:51:28 10° N 19:56:22 14° NE 19:58:33 13° NE visible
10 Aug 10.4 21:52:26 10° NNW 21:56:44 29° NNW 21:56:44 29° NNW visible
11 Aug 10.8 19:29:08 10° N 19:33:16 13° NE 19:36:47 11° ENE visible
11 Aug 10.1 21:29:34 10° NNW 21:34:58 35° NNW 21:34:58 35° NNW visible
12 Aug 10.8 19:07:00 10° NNE 19:10:09 12° NE 19:13:18 10° NE visible
12 Aug 9.9 21:06:42 10° NNW 21:13:16 42° N 21:13:16 42° N visible
13 Aug 10.9 18:45:25 10° NNE 18:47:01 10° NE 18:48:36 10° NE visible
13 Aug 9.6 20:43:50 10° NNW 20:51:37 47° NNE 20:51:37 47° NNE visible
13 Aug 11.3 22:49:27 10° WNW 22:49:49 11° WNW 22:49:49 11° WNW visible
